Regional Weather Roundup
Issued by NWS

Home | Current Version | Previous Version | Text Only | Print | Product List | Glossary On
Versions: 1 2 3 4 5 6 7 8 9 10 11 12 13 14 15 16 17 18 19 20 21 22 23 24 25 26 27 28 29 30 31 32 33 34 35 36 37 38 39 40 41 42 43 44 45 46 47 48 49 50
752
ASUS43 KTOP 222259
RWRKS

WEATHER ROUNDUP FOR KANSAS
NATIONAL WEATHER SERVICE GOODLAND KS
500 PM CST SUN JAN 22 2017

NOTE:  "FAIR" INDICATES FEW OR NO CLOUDS BELOW 12,000 FEET WITH NO
SIGNIFICANT WEATHER AND/OR OBSTRUCTIONS TO VISIBILITY.

KSZ001>006-013>018-027>032-041>047-230000-
NORTHWEST KANSAS

CITY           SKY/WX    TMP DP  RH WIND       PRES   REMARKS
GOODLAND       CLEAR     47  24  40 NW10      29.90R
HAYS           CLEAR     50  26  39 N12       29.88R
HILL CITY      CLEAR     51  27  39 NW9       29.89R
RUSSELL        CLEAR     50  25  37 N15       29.86R
$$

KSZ061>065-074>080-084>089-230000-
SOUTHWEST KANSAS

CITY           SKY/WX    TMP DP  RH WIND       PRES   REMARKS
DODGE CITY     CLEAR     50  24  36 N10       29.90R
ELKHART          N/A     50  19  29 NW15        N/A
GARDEN CITY    CLEAR     49  29  46 N15       29.91R
GREAT BEND     CLEAR     50  28  42 NW15      29.88R
LIBERAL          N/A     52  27  37 NW13      29.94R
$$

KSZ066>073-081>083-090>101-230000-
SOUTHEAST KANSAS

CITY           SKY/WX    TMP DP  RH WIND       PRES   REMARKS
CHANUTE        CLEAR     41  33  73 N18G29    29.78R
COFFEYVILLE    CLEAR     53  34  48 N18G29    29.74R
HUTCHINSON     CLEAR     51  26  37 N20G25    29.85R
MEDICINE LODGE   N/A     52  25  35 N15G22    29.86R
NEWTON         CLEAR     46  32  58 N18       29.84R
PARSONS        CLEAR     47  37  68 N18G25    29.76R
WICHITA INTL   CLEAR     51  29  42 N24G30    29.82R
WICHITA JABRA  CLEAR     48  32  53 N20G25    29.82R
WINFIELD       CLEAR     51  32  48 N17       29.81R
$$

KSZ007>012-019>026-033>040-048>060-102>105-230000-
NORTHEAST KANSAS

CITY           SKY/WX    TMP DP  RH WIND       PRES   REMARKS
CONCORDIA      CLEAR     44  33  65 N10       29.86R
EMPORIA        CLOUDY    37  31  78 NW16      29.83R WCI  28
LAWRENCE       CLOUDY    39  34  82 NW16      29.80R WCI  30
MANHATTAN      MOCLDY    42  32  67 N8        29.86R
OLATHE IND     CLOUDY    36  32  85 N13       29.79R WCI  27
OLATHE EXE     CLOUDY    36  32  85 N12       29.78R WCI  28
SALINA         CLEAR     48  32  53 N14       29.87R
TOPEKA BILLARD CLOUDY    41  33  73 NW12      29.82R
TOPEKA FORBES  CLOUDY    41  33  73 MISG      29.81R
$$




USA.gov is the U.S. government's official web portal to all federal, state and local government web resources and services.